User: anonymous   Login
Location: Unspecified
(0.0000°N, 0.0000°E)
Time: 09:51:59
(UTC+02:00)
Language:

Milstar 3 Cent rocket - Orbit

View from above orbital plane
View from above orbital plane
View from above satellite
View from above satellite

Ground track
Ground track

The orbit data is extracted from the following two-line orbital elements,

1 25725U 99023B   18134.92435852 0.00000000  00000-0  00000-0 0    02
2 25725  28.3110 336.6708 2372613 357.1606   2.8388  9.67242630    01
Epoch (UTC): 14 May 2018 22:11:04
Eccentricity: 0.2372613
inclination: 28.3110°
perigee height: 719 km
apogee height: 5134 km
right ascension of ascending node: 336.6708°
argument of perigee: 357.1606°
revolutions per day: 9.67242630
mean anomaly at epoch: 2.8388°
orbit number at epoch: 0

The dashed part of the orbit path shows where the satellite is in the earth's shadow,  

DLR